[ hide orbit diagram ]
For accurate long-term ephemerides, please instead use our Horizons system.This orbit viewer was implemented using two-body methods, and hence should not be used for determining accurate long-term trajectories (over several years or decades) or planetary encounter circumstances.
Orbital Elements at Epoch 2459000.5 (2020-May-31.0) TDB
Reference: JPL 31 (heliocentric ecliptic J2000)
Element | Value | Uncertainty (1-sigma) | Units |
e | .2237397099267454 | 3.1135e-08 | |
a | 2.246151911652276 | 6.2256e-09 | au |
q | 1.743598534487791 | 7.0618e-08 | au |
i | 5.646493916057732 | 3.6465e-06 | deg |
node | 190.3419819815458 | 3.3486e-05 | deg |
peri | 170.7495165624946 | 3.4203e-05 | deg |
M | 161.1197623268108 | 7.7036e-06 | deg |
tp | 2458450.195041111626 (2018-Nov-27.69504111) | 2.5708e-05 | TDB |
period | 1229.580917565993 3.37 | 5.112e-06 1.4e-08 | d yr |
n | .292782682991401 | 1.2172e-09 | deg/d |
Q | 2.748705288816761 | 7.6185e-09 | au |
|
| | Orbit Determination Parameters
Additional Information
|
[ show covariance matrix ]
Physical Parameter Table
Parameter |
Symbol |
Value |
Units |
Sigma |
Reference |
Notes |
absolute magnitude |
H |
14.9 |
|
n/a |
MPO449050 |
|
|
14122 Josties | Discovered 1998 Aug. 27 by the Lowell Observatory Near-Earth Object Search at the Anderson Mesa Station. |
F. Jerry Josties (b. 1937) worked at the U.S. Naval Observatory for more than four decades. He managed USNO's photographic double star program and contributed to VLBI work on the determination of polar motion, earth rotation and nutation. |
NOTE: some special characters may not display properly (any characters within {} are an attempt to place the proper accent above a character) |
Reference: 20030318/MPCPages.arc | Last Updated: 2003-10-02 |
|
[ hide close-approach data ]
Close-Approach Data ...sorted by Date/Time (TDB)
|
Date/Time (TDB) |
Time Uncertainty (days_HH:MM) |
Body |
Nominal Distance (au) |
Minimum Distance (au) |
Maximum Distance (au) |
V-relative (km/s) |
V-infinity (km/s) |
JD (TDB) |
Time Uncertainty (minutes) |
Semi-major axis (km) |
Semi-minor axis (km) |
range-LOV angle (deg) |
N-sigma |
BP |
Orbit Ref. |
Reference |
Modified |
2117-May-27 18:26 |
< 00:01 |
Hebe |
0.0414025018221852 |
0.0413931946042217 |
0.0414118117703145 |
3.98103496605398 |
3.98103492833717 |
2494425.267740371 |
0.529359885919526 |
704.582561390159 |
19.9716588815317 |
-48.8492201022239 |
233437.770756427 |
T |
31 |
CATAB v2.0f-lin.ifort 2020-Nov-13 02:42:03 |
2020-Nov-13 02:42 |
|
|